Weather History for Mason, MI

Change the Weather History Date:

Wednesday, December 26, 2012

  Actual Average (KLAN) Record (KLAN)
Temperature  
Mean Temperature 27 °F 26 °F  
Max Temperature 29 °F 32 °F 52 °F (1891)
Min Temperature 24 °F 19 °F -15 °F (1914)
Degree Days  
Heating Degree Days 38 40  
Month to date heating degree days 937  
Since 1 July heating degree days 2351  
Cooling Degree Days 0 0  
Month to date cooling degree days 0  
Year to date cooling degree days 625  
Moisture  
Dew Point 23 °F    
Average Humidity 82    
Maximum Humidity 92    
Minimum Humidity 74    
Precipitation  
Precipitation 0.00 in 0.06 in 0.91 in (1942)
Month to date precipitation 1.59  
Year to date precipitation 31.49  
Snow  
Snow 0.00 in 0.40 in 4.70 in (1984)
Month to date snowfall 10.6  
Since 1 July snowfall 14.4  
Snow Depth -    
Sea Level Pressure  
Sea Level Pressure 30.00 in    
Wind  
Wind Speed 12 mph (NNE)    
Max Wind Speed 22 mph    
Max Gust Speed 32 mph    
Visibility 7 miles    
Events Snow    
T = Trace of Precipitation, MM = Missing Value Source: NWS Daily Summary

Daily Weather History Graph

Daily Weather History Graph

Search for Another Location

Airport:

Trip Planner

Search our weather history database for the weather conditions in past years. The results will help you decide how hot, cold, wet, or windy it might be!

Date:

Astronomy

Dec. 26, 2012 Rise Set
Actual Time 8:06 AM EST 5:10 PM EST
Civil Twilight 7:34 AM EST 5:42 PM EST
Nautical Twilight 6:58 AM EST 6:18 PM EST
Astronomical Twilight 6:24 AM EST 6:52 PM EST
Moon 4:04 PM EST (12/26) 6:28 AM EST (12/26)
Length of Visible Light 10h 08m
Length of Day
9h 04m
Waxing Gibbous, 97% of the Moon is Illuminated
Dec 26
Waxing Gibbous
Dec 28
Full
Jan 4
Last Quarter
Jan 11
New
Jan 18
First Quarter

Hourly Weather History & Observations

Time (EST) Temp. Windchill Dew Point Humidity Pressure Visibility Wind Dir Wind Speed Gust Speed Precip Events Conditions
12:14 AM 27.3 °F 19.1 °F 19.9 °F 74% 30.25 in 10.0 mi NE 8.1 mph - N/A   Overcast
12:34 AM 27.3 °F 19.1 °F 20.3 °F 75% 30.25 in 10.0 mi NE 8.1 mph - N/A   Overcast
12:54 AM 27.3 °F 19.1 °F 20.8 °F 77% 30.24 in 10.0 mi NE 8.1 mph - N/A   Overcast
1:14 AM 27.3 °F 19.1 °F 21.2 °F 78% 30.23 in 10.0 mi NE 8.1 mph - N/A   Overcast
1:34 AM 27.3 °F 17.7 °F 21.7 °F 80% 30.23 in 10.0 mi NE 10.4 mph - N/A   Overcast
1:54 AM 27.3 °F 18.4 °F 22.1 °F 81% 30.21 in 10.0 mi NE 9.2 mph - N/A   Overcast
2:14 AM 27.3 °F 18.4 °F 22.1 °F 81% 30.21 in 10.0 mi NE 9.2 mph - N/A   Overcast
2:34 AM 27.5 °F 19.3 °F 22.6 °F 82% 30.21 in 10.0 mi NE 8.1 mph - N/A   Overcast
2:54 AM 27.5 °F 20.2 °F 22.8 °F 83% 30.21 in 10.0 mi NE 6.9 mph - N/A   Overcast
3:15 AM 27.9 °F 19.1 °F 22.8 °F 81% 30.20 in 10.0 mi NE 9.2 mph - N/A   Overcast
3:34 AM 28.2 °F 19.5 °F 23.0 °F 81% 30.18 in 10.0 mi NE 9.2 mph - N/A   Overcast
3:54 AM 28.4 °F 17.5 °F 22.6 °F 79% 30.14 in 10.0 mi NE 13.8 mph - N/A   Overcast
4:14 AM 28.9 °F 17.7 °F 22.3 °F 76% 30.13 in 10.0 mi NE 15.0 mph 19.6 mph N/A   Overcast
4:34 AM 28.9 °F 18.6 °F 22.3 °F 76% 30.12 in 10.0 mi ENE 12.7 mph 16.1 mph N/A   Overcast
4:54 AM 28.9 °F 18.2 °F 22.1 °F 76% 30.11 in 10.0 mi ENE 13.8 mph 23.0 mph N/A   Overcast
5:15 AM 28.9 °F 18.6 °F 22.1 °F 76% 30.12 in 10.0 mi NE 12.7 mph 18.4 mph N/A   Overcast
5:34 AM 28.8 °F 17.9 °F 21.9 °F 76% 30.11 in 10.0 mi NE 13.8 mph - N/A   Overcast
5:54 AM 28.8 °F 18.4 °F 21.9 °F 76% 30.10 in 10.0 mi NE 12.7 mph 17.3 mph N/A   Overcast
6:15 AM 28.8 °F 18.4 °F 22.1 °F 76% 30.11 in 10.0 mi NE 12.7 mph - N/A   Overcast
6:34 AM 28.8 °F 18.4 °F 22.1 °F 76% 30.10 in 10.0 mi NE 12.7 mph 17.3 mph N/A   Overcast
6:54 AM 28.8 °F 18.4 °F 22.1 °F 76% 30.08 in 10.0 mi NE 12.7 mph - N/A   Overcast
7:15 AM 28.4 °F 17.0 °F 22.1 °F 77% 30.08 in 10.0 mi NNE 15.0 mph 20.7 mph N/A   Overcast
7:34 AM 28.4 °F 17.5 °F 21.9 °F 77% 30.07 in 10.0 mi NNE 13.8 mph 20.7 mph N/A   Overcast
7:54 AM 28.4 °F 17.5 °F 21.9 °F 77% 30.06 in 10.0 mi NNE 13.8 mph 17.3 mph N/A   Overcast
8:14 AM 28.4 °F 17.5 °F 21.7 °F 76% 30.07 in 10.0 mi NE 13.8 mph 18.4 mph N/A   Overcast
8:34 AM 28.4 °F 17.0 °F 21.9 °F 77% 30.05 in 10.0 mi NE 15.0 mph 19.6 mph N/A   Overcast
8:54 AM 28.4 °F 17.5 °F 22.1 °F 77% 30.04 in 10.0 mi NE 13.8 mph 20.7 mph N/A   Overcast
9:14 AM 28.4 °F 16.2 °F 22.5 °F 78% 30.03 in 10.0 mi NE 17.3 mph 23.0 mph N/A   Overcast
9:34 AM 28.8 °F 17.9 °F 22.8 °F 78% 30.02 in 10.0 mi NE 13.8 mph 21.9 mph N/A   Overcast
9:54 AM 28.9 °F 17.7 °F 23.0 °F 78% 30.01 in 10.0 mi NE 15.0 mph 19.6 mph N/A   Overcast
10:14 AM 29.3 °F 18.2 °F 23.0 °F 77% 30.01 in 10.0 mi NE 15.0 mph 23.0 mph N/A   Overcast
10:34 AM 29.3 °F 18.2 °F 23.4 °F 78% 29.99 in 10.0 mi NE 15.0 mph 23.0 mph N/A   Overcast
10:54 AM 29.5 °F 19.3 °F 23.4 °F 78% 29.98 in 10.0 mi NNE 12.7 mph 21.9 mph N/A   Overcast
11:14 AM 29.3 °F 17.3 °F 23.5 °F 79% 29.96 in 10.0 mi NNE 17.3 mph 24.2 mph N/A   Overcast
11:34 AM 29.7 °F 19.1 °F 23.7 °F 79% 29.97 in 10.0 mi NE 13.8 mph 24.2 mph N/A   Overcast
11:55 AM 29.8 °F 19.3 °F 23.7 °F 78% 29.96 in 10.0 mi NE 13.8 mph 26.5 mph N/A   Overcast
12:14 PM 29.8 °F 18.0 °F 23.5 °F 77% 29.95 in 10.0 mi NE 17.3 mph 24.2 mph N/A   Overcast
12:34 PM 29.7 °F 17.4 °F 23.5 °F 78% 29.93 in 10.0 mi NNE 18.4 mph 24.2 mph N/A   Overcast
12:55 PM 29.3 °F 15.9 °F 23.4 °F 78% 29.92 in 10.0 mi NNE 21.9 mph 27.6 mph N/A   Overcast
1:14 PM 29.3 °F 16.6 °F 23.7 °F 80% 29.91 in 7.0 mi NE 19.6 mph 25.3 mph N/A Snow Light Snow
1:34 PM 29.3 °F 17.7 °F 23.9 °F 80% 29.89 in 5.0 mi NNE 16.1 mph 25.3 mph N/A Snow Light Snow
1:55 PM 28.9 °F 16.5 °F 24.8 °F 84% 29.89 in 1.0 mi NE 18.4 mph 27.6 mph N/A Snow Light Snow
2:14 PM 29.1 °F 15.7 °F 24.4 °F 83% 29.89 in 1.8 mi NE 21.9 mph 29.9 mph N/A Snow Light Snow
2:34 PM 28.9 °F 16.1 °F 24.8 °F 84% 29.89 in 1.8 mi NNE 19.6 mph 32.2 mph N/A Snow Light Snow
2:55 PM 28.8 °F 17.0 °F 24.8 °F 85% 29.88 in 1.2 mi NNE 16.1 mph 25.3 mph N/A Snow Light Snow
3:14 PM 28.4 °F 17.0 °F 25.2 °F 88% 29.88 in 1.5 mi NNE 15.0 mph 24.2 mph N/A Snow Light Snow
3:34 PM 28.4 °F 16.2 °F 25.3 °F 88% 29.88 in 1.0 mi NNE 17.3 mph 25.3 mph N/A Snow Light Snow
3:55 PM 27.7 °F 15.2 °F 24.8 °F 89% 29.89 in 0.5 mi NE 17.3 mph 23.0 mph N/A Snow Light Snow
4:14 PM 27.5 °F 15.9 °F 25.2 °F 91% 29.89 in 0.5 mi NNE 15.0 mph 19.6 mph N/A Snow Snow
4:35 PM 26.6 °F 13.4 °F 24.4 °F 92% 29.88 in 0.2 mi NNE 18.4 mph 28.8 mph N/A Snow Snow
4:54 PM 26.4 °F 12.5 °F 23.9 °F 90% 29.88 in 0.5 mi NNE 20.7 mph 28.8 mph N/A Snow Snow
5:14 PM 26.4 °F 15.5 °F 23.9 °F 90% 29.88 in 0.5 mi NNE 12.7 mph 28.8 mph N/A Snow Snow
5:35 PM 26.6 °F 15.7 °F 24.3 °F 91% 29.89 in 1.2 mi NNE 12.7 mph 18.4 mph N/A Snow Light Snow
5:55 PM 26.8 °F 17.7 °F 24.3 °F 90% 29.89 in 1.2 mi North 9.2 mph 20.7 mph N/A Snow Snow
6:14 PM 27.1 °F 15.9 °F 24.6 °F 90% 29.89 in 1.5 mi NNE 13.8 mph 21.9 mph N/A Snow Light Snow
6:35 PM 27.1 °F 17.5 °F 24.8 °F 91% 29.90 in 1.5 mi North 10.4 mph - N/A Snow Light Snow
6:54 PM 27.5 °F 17.4 °F 24.8 °F 90% 29.90 in 1.5 mi NNE 11.5 mph 19.6 mph N/A Snow Light Snow
7:14 PM 27.5 °F 16.8 °F 24.8 °F 90% 29.90 in 2.0 mi NNE 12.7 mph 17.3 mph N/A Snow Light Snow
7:35 PM 27.5 °F 16.8 °F 24.8 °F 90% 29.91 in 2.5 mi NNE 12.7 mph 18.4 mph N/A Snow Light Snow
7:54 PM 27.9 °F 16.3 °F 24.6 °F 88% 29.91 in 3.0 mi NNE 15.0 mph 24.2 mph N/A Snow Light Snow
8:14 PM 28.2 °F 17.2 °F 24.8 °F 87% 29.91 in 3.0 mi North 13.8 mph 23.0 mph N/A Snow Light Snow
8:35 PM 28.2 °F 17.2 °F 25.2 °F 88% 29.89 in 2.5 mi NNE 13.8 mph 24.2 mph N/A Snow Light Snow
8:54 PM 28.4 °F 18.0 °F 25.5 °F 89% 29.89 in 2.0 mi NNE 12.7 mph 20.7 mph N/A Snow Light Snow
9:14 PM 28.4 °F 19.1 °F 25.5 °F 89% 29.89 in 3.0 mi North 10.4 mph 21.9 mph N/A Snow Light Snow
9:35 PM 26.1 °F 15.6 °F 23.2 °F 89% 29.90 in 4.0 mi North 11.5 mph 18.4 mph N/A Snow Light Snow
9:54 PM 25.7 °F 14.6 °F 22.6 °F 88% 29.91 in 4.0 mi North 12.7 mph 20.7 mph N/A Snow Light Snow
10:14 PM 25.5 °F 13.8 °F 22.1 °F 87% 29.91 in 5.0 mi North 13.8 mph 21.9 mph N/A Snow Light Snow
10:35 PM 25.3 °F 14.1 °F 21.7 °F 86% 29.91 in 7.0 mi North 12.7 mph 19.6 mph N/A Snow Light Snow
10:54 PM 25.2 °F 13.3 °F 21.6 °F 86% 29.91 in 10.0 mi North 13.8 mph 21.9 mph N/A   Overcast
11:15 PM 25.2 °F 13.3 °F 21.2 °F 85% 29.91 in 10.0 mi North 13.8 mph 19.6 mph N/A   Overcast
11:35 PM 25.3 °F 12.2 °F 21.6 °F 86% 29.91 in 10.0 mi NNW 17.3 mph 21.9 mph N/A   Overcast
11:54 PM 24.8 °F 12.9 °F 21.2 °F 86% 29.91 in 10.0 mi NNW 13.8 mph 18.4 mph N/A   Overcast